Location: Nebula Knoll Observatory
(43.6666°N, 71.0000°W)
Time: 03:41:47
(UTC-04:00)

Cosmos 1782 - Visible Passes

Search period start: 23 April 2014 00:00
Search period end: 03 May 2014 00:00
Orbit: 551 x 566 km, 82.5° (Epoch: 21 April)

Date Brightness Start Highest point End Pass type
(mag) Time Alt. Az. Time Alt. Az. Time Alt. Az.
23 Apr 3.9 20:48:37 19° SE 20:50:27 27° E 20:53:55 10° NNE visible
23 Apr 5.0 22:24:27 14° WSW 22:27:02 23° WNW 22:30:21 10° NNW visible
24 Apr 3.7 20:46:07 15° SSE 20:48:51 31° E 20:52:30 10° NNE visible
24 Apr 5.3 22:22:27 10° WSW 22:25:31 20° WNW 22:28:37 10° NNW visible
25 Apr 3.4 20:43:31 10° SSE 20:47:15 37° E 20:51:02 10° NNE visible
25 Apr 5.5 22:21:14 10° WSW 22:24:01 18° WNW 22:26:50 10° NNW visible
26 Apr 3.2 20:41:48 10° SSE 20:45:39 44° E 20:49:33 10° NNE visible
26 Apr 5.7 22:20:03 10° WSW 22:22:31 15° WNW 22:24:59 10° NNW visible
27 Apr 3.0 20:40:06 10° S 20:44:03 52° E 20:48:02 10° NNE visible
27 Apr 5.9 22:18:59 10° W 22:21:00 13° WNW 22:23:02 10° NW visible
28 Apr 2.9 20:38:26 10° S 20:42:26 62° E 20:46:30 10° NNE visible
28 Apr 6.0 22:18:06 10° W 22:19:30 11° WNW 22:20:54 10° NW visible
29 Apr 2.8 20:36:47 10° S 20:40:50 74° E 20:44:56 10° NNE visible
30 Apr 2.8 20:35:09 10° S 20:39:13 87° E 20:43:20 10° N visible
01 May 3.0 20:33:32 10° S 20:37:36 80° W 20:41:44 10° N visible
02 May 3.3 20:31:57 10° SSW 20:36:00 68° W 20:40:06 10° N visible
